When you browse on this site, cookies collect data to enhance your experience and personalize the content and advertising you see.
Visit our Privacy Policy to learn more. By continuing to use the site, you agree to this use of cookies and data.
  • En España
  • Lista de países
  • Para 7 días
  • Temperatura del agua
  • Mapa Satelital
  • El tiempo en el mapa
  • Informadores
  • user-avatar
    Iniciar sesión

    Tiempo cada hora Kerns

    Hoy, 21 Julio, Domingo

    Tiempo Temperatura Precipitaciones Viento Presión Humedad
    00:00 +16°C° 0 mm 3 mps 762 mmHg 96%
    01:00 +14°C° 0 mm 3 mps 762 mmHg 96%
    02:00 +14°C° 0 mm 3 mps 761 mmHg 96%
    03:00 +14°C° 0 mm 3 mps 761 mmHg 96%
    04:00 +14°C° 0 mm 3 mps 761 mmHg 96%
    05:00 +14°C° 0 mm 3 mps 761 mmHg 96%
    06:00 +14°C° 0 mm 3 mps 762 mmHg 96%
    07:00 +16°C° 0 mm 3 mps 762 mmHg 95%
    08:00 +18°C° 0 mm 3 mps 762 mmHg 83%
    09:00 +21°C° 0 mm 4 mps 762 mmHg 71%
    10:00 +25°C° 0 mm 4 mps 762 mmHg 58%
    11:00 +26°C° 0 mm 4 mps 761 mmHg 54%
    12:00 +27°C° 0 mm 4 mps 761 mmHg 49%
    13:00 +28°C° 0 mm 4 mps 760 mmHg 45%
    14:00 +27°C° 0 mm 4 mps 759 mmHg 49%
    15:00 +26°C° 0 mm 4 mps 759 mmHg 54%
    16:00 +25°C° 0 mm 5 mps 759 mmHg 58%
    17:00 +23°C° 0 mm 4 mps 759 mmHg 69%
    18:00 +21°C° 0 mm 4 mps 759 mmHg 79%
    19:00 +19°C° 0 mm 3 mps 760 mmHg 90%
    20:00 +18°C° 0 mm 3 mps 760 mmHg 92%
    21:00 +18°C° 0 mm 3 mps 761 mmHg 94%
    22:00 +17°C° 0 mm 3 mps 761 mmHg 96%
    23:00 +17°C° 0 mm 3 mps 761 mmHg 96%

    Mañana, 22 Julio, Lunes

    Tiempo Temperatura Precipitaciones Viento Presión Humedad
    00:00 +16°C° 0 mm 3 mps 761 mmHg 96%
    01:00 +16°C° 0 mm 3 mps 760 mmHg 95%
    02:00 +16°C° 0 mm 2 mps 760 mmHg 95%
    03:00 +16°C° 0 mm 2 mps 760 mmHg 95%
    04:00 +15°C° 0 mm 2 mps 760 mmHg 94%
    05:00 +15°C° 0 mm 2 mps 760 mmHg 93%
    06:00 +15°C° 0 mm 2 mps 760 mmHg 92%
    07:00 +14°C° 0 mm 3 mps 761 mmHg 90%
    08:00 +18°C° 0 mm 3 mps 761 mmHg 79%
    09:00 +22°C° 0 mm 3 mps 761 mmHg 68%
    10:00 +26°C° 0 mm 4 mps 761 mmHg 57%
    11:00 +27°C° 0 mm 4 mps 760 mmHg 53%
    12:00 +28°C° 0 mm 5 mps 760 mmHg 48%
    13:00 +29°C° 0 mm 5 mps 759 mmHg 44%
    14:00 +29°C° 0 mm 5 mps 759 mmHg 47%
    15:00 +28°C° 0 mm 6 mps 759 mmHg 51%
    16:00 +28°C° 0 mm 6 mps 758 mmHg 54%
    17:00 +25°C° 0 mm 5 mps 759 mmHg 67%
    18:00 +22°C° 0 mm 5 mps 759 mmHg 80%
    19:00 +20°C° 0 mm 5 mps 760 mmHg 93%
    20:00 +20°C° 0 mm 5 mps 760 mmHg 94%
    21:00 +19°C° 0 mm 5 mps 760 mmHg 95%
    22:00 +19°C° 0 mm 4 mps 761 mmHg 96%
    23:00 +19°C° 0.1 mm 4 mps 761 mmHg 97%

    Pasado mañana, 23 Julio, Martes

    Tiempo Temperatura Precipitaciones Viento Presión Humedad
    00:00 +19°C° 0.1 mm 4 mps 761 mmHg 97%
    01:00 +19°C° 0.1 mm 4 mps 760 mmHg 97%
    02:00 +19°C° 0.1 mm 4 mps 760 mmHg 97%
    03:00 +20°C° 0.1 mm 4 mps 760 mmHg 97%
    04:00 +20°C° 0.1 mm 4 mps 760 mmHg 97%
    05:00 +20°C° 0.1 mm 4 mps 760 mmHg 97%
    06:00 +20°C° 0.1 mm 4 mps 761 mmHg 97%
    07:00 +20°C° 0.1 mm 4 mps 761 mmHg 97%
    08:00 +21°C° 0.1 mm 5 mps 761 mmHg 93%
    09:00 +22°C° 0.1 mm 5 mps 762 mmHg 90%
    10:00 +23°C° 0.1 mm 5 mps 762 mmHg 86%
    11:00 +25°C° 0.1 mm 5 mps 762 mmHg 81%
    12:00 +26°C° 0.1 mm 6 mps 761 mmHg 77%
    13:00 +26°C° 0.1 mm 6 mps 761 mmHg 72%
    14:00 +26°C° 0.3 mm 6 mps 761 mmHg 77%
    15:00 +24°C° 0.3 mm 6 mps 761 mmHg 82%
    16:00 +23°C° 0.3 mm 5 mps 760 mmHg 86%
    17:00 +22°C° 0.4 mm 5 mps 761 mmHg 89%
    18:00 +22°C° 0.4 mm 5 mps 761 mmHg 92%
    19:00 +21°C° 0.4 mm 5 mps 762 mmHg 95%
    20:00 +21°C° 0.1 mm 5 mps 762 mmHg 95%
    21:00 +21°C° 0.1 mm 5 mps 763 mmHg 95%
    22:00 +21°C° 0.1 mm 5 mps 763 mmHg 96%
    23:00 +20°C° 0.1 mm 5 mps 763 mmHg 96%

    24 Julio, Miércoles

    Tiempo Temperatura Precipitaciones Viento Presión Humedad
    00:00 +20°C° 0.1 mm 5 mps 763 mmHg 97%
    01:00 +20°C° 0.1 mm 5 mps 763 mmHg 97%
    02:00 +20°C° 0.2 mm 5 mps 762 mmHg 97%
    03:00 +19°C° 0.2 mm 4 mps 762 mmHg 97%
    04:00 +19°C° 0.2 mm 4 mps 762 mmHg 97%
    05:00 +19°C° 0.2 mm 5 mps 762 mmHg 97%
    06:00 +20°C° 0.2 mm 5 mps 763 mmHg 97%
    07:00 +20°C° 0.2 mm 5 mps 763 mmHg 96%
    08:00 +21°C° 0.2 mm 5 mps 763 mmHg 89%
    09:00 +22°C° 0.2 mm 6 mps 764 mmHg 82%
    10:00 +23°C° 0.2 mm 7 mps 764 mmHg 75%
    11:00 +24°C° 0.1 mm 7 mps 763 mmHg 69%
    12:00 +26°C° 0.1 mm 7 mps 763 mmHg 64%
    13:00 +26°C° 0.1 mm 7 mps 763 mmHg 58%
    14:00 +26°C° 0 mm 7 mps 762 mmHg 59%
    15:00 +24°C° 0 mm 7 mps 762 mmHg 60%
    16:00 +24°C° 0 mm 7 mps 762 mmHg 61%
    17:00 +22°C° 0 mm 6 mps 762 mmHg 69%
    18:00 +20°C° 0 mm 6 mps 763 mmHg 78%
    19:00 +17°C° 0 mm 5 mps 763 mmHg 86%
    20:00 +17°C° 0 mm 5 mps 763 mmHg 88%
    21:00 +16°C° 0 mm 5 mps 764 mmHg 90%
    22:00 +16°C° 0 mm 5 mps 764 mmHg 92%
    23:00 +16°C° 0 mm 5 mps 764 mmHg 93%

    25 Julio, Jueves

    Tiempo Temperatura Precipitaciones Viento Presión Humedad
    00:00 +15°C° 0 mm 5 mps 763 mmHg 94%
    01:00 +15°C° 0 mm 5 mps 763 mmHg 94%
    02:00 +15°C° 0 mm 5 mps 762 mmHg 95%
    03:00 +15°C° 0 mm 5 mps 762 mmHg 95%
    04:00 +15°C° 0 mm 5 mps 762 mmHg 95%
    05:00 +15°C° 0 mm 5 mps 762 mmHg 95%
    06:00 +16°C° 0 mm 5 mps 762 mmHg 95%
    07:00 +16°C° 0 mm 5 mps 763 mmHg 95%
    08:00 +19°C° 0.1 mm 5 mps 763 mmHg 88%
    09:00 +21°C° 0.1 mm 6 mps 763 mmHg 80%
    10:00 +23°C° 0.1 mm 6 mps 763 mmHg 72%
    11:00 +24°C° 0.2 mm 6 mps 763 mmHg 69%
    12:00 +26°C° 0.2 mm 6 mps 762 mmHg 66%
    13:00 +27°C° 0.2 mm 7 mps 762 mmHg 63%
    14:00 +26°C° 0.1 mm 6 mps 761 mmHg 64%
    15:00 +24°C° 0.1 mm 6 mps 761 mmHg 66%
    16:00 +24°C° 0.1 mm 6 mps 761 mmHg 67%
    17:00 +22°C° 0.1 mm 6 mps 761 mmHg 75%
    18:00 +21°C° 0.1 mm 6 mps 762 mmHg 82%
    19:00 +19°C° 0.1 mm 6 mps 762 mmHg 89%
    20:00 +19°C° 0.2 mm 5 mps 763 mmHg 91%
    21:00 +19°C° 0.2 mm 5 mps 763 mmHg 92%
    22:00 +17°C° 0.2 mm 5 mps 763 mmHg 94%
    23:00 +18°C° 0.1 mm 4 mps 763 mmHg 95%

    26 Julio, Viernes

    Tiempo Temperatura Precipitaciones Viento Presión Humedad
    00:00 +18°C° 0.1 mm 4 mps 763 mmHg 95%
    01:00 +18°C° 0.1 mm 4 mps 762 mmHg 96%
    02:00 +17°C° 0.2 mm 4 mps 762 mmHg 96%
    03:00 +17°C° 0.2 mm 4 mps 762 mmHg 96%
    04:00 +17°C° 0.2 mm 4 mps 762 mmHg 97%
    05:00 +17°C° 0.1 mm 4 mps 762 mmHg 97%
    06:00 +17°C° 0.1 mm 4 mps 762 mmHg 97%
    07:00 +17°C° 0.1 mm 4 mps 762 mmHg 97%
    08:00 +19°C° 0 mm 4 mps 762 mmHg 87%
    09:00 +22°C° 0 mm 4 mps 762 mmHg 76%
    10:00 +25°C° 0 mm 4 mps 762 mmHg 66%
    11:00 +26°C° 0 mm 5 mps 762 mmHg 63%
    12:00 +27°C° 0 mm 5 mps 761 mmHg 59%
    13:00 +28°C° 0 mm 5 mps 761 mmHg 56%
    14:00 +27°C° 0 mm 5 mps 760 mmHg 58%
    15:00 +27°C° 0 mm 5 mps 760 mmHg 61%
    16:00 +26°C° 0 mm 5 mps 760 mmHg 63%
    17:00 +23°C° 0 mm 5 mps 760 mmHg 73%
    18:00 +21°C° 0 mm 5 mps 761 mmHg 83%
    19:00 +19°C° 0 mm 4 mps 761 mmHg 93%
    20:00 +19°C° 0 mm 4 mps 761 mmHg 94%
    21:00 +19°C° 0 mm 4 mps 762 mmHg 95%
    22:00 +19°C° 0 mm 4 mps 762 mmHg 95%
    23:00 +19°C° 0 mm 4 mps 762 mmHg 96%
    Mostrar más